TimeCDT,TemperatureF,Dew PointF,Humidity,Sea Level PressureIn,VisibilityMPH,Wind Direction,Wind SpeedMPH,Gust SpeedMPH,PrecipitationIn,Events,Conditions,WindDirDegrees,DateUTC
12:55 AM,62.2,53.8,74,29.97,10.0,SE,5.8,-,N/A,,Scattered Clouds,130,2013-04-09 05:55:00
1:55 AM,62.6,54.9,76,29.96,10.0,SE,5.8,-,N/A,,Mostly Cloudy,130,2013-04-09 06:55:00
2:55 AM,63.9,57.2,79,29.96,10.0,SE,6.9,-,N/A,,Clear,130,2013-04-09 07:55:00
3:55 AM,63.1,59.2,87,29.97,10.0,SE,6.9,-,N/A,,Partly Cloudy,130,2013-04-09 08:55:00
4:55 AM,63.0,60.6,92,29.98,10.0,SSE,6.9,-,N/A,,Partly Cloudy,150,2013-04-09 09:55:00
5:55 AM,63.5,61.2,92,30.01,10.0,SE,6.9,-,N/A,,Clear,140,2013-04-09 10:55:00
6:50 AM,64.4,60.8,88,30.03,10.0,SSE,8.1,-,N/A,,Light Drizzle,150,2013-04-09 11:50:00
6:55 AM,64.0,62.1,93,30.03,10.0,SE,9.2,-,0.00,,Light Drizzle,140,2013-04-09 11:55:00
6:59 AM,64.4,62.6,94,30.04,10.0,SE,8.1,-,N/A,,Mostly Cloudy,140,2013-04-09 11:59:00
7:55 AM,64.9,62.1,90,30.04,10.0,SSE,9.2,-,0.00,,Partly Cloudy,150,2013-04-09 12:55:00
8:55 AM,69.4,61.5,76,30.05,10.0,SSE,11.5,-,N/A,,Partly Cloudy,160,2013-04-09 13:55:00
10:55 AM,72.1,61.0,68,30.07,10.0,SSE,8.1,-,N/A,,Scattered Clouds,160,2013-04-09 15:55:00
11:08 AM,71.6,60.8,69,30.06,10.0,SSE,11.5,17.3,N/A,,Light Drizzle,160,2013-04-09 16:08:00
11:18 AM,73.4,60.8,65,30.06,10.0,South,10.4,-,N/A,,Scattered Clouds,170,2013-04-09 16:18:00
11:20 AM,73.4,60.8,65,30.06,10.0,SSE,8.1,-,N/A,,Light Drizzle,160,2013-04-09 16:20:00
11:30 AM,75.2,60.8,61,30.06,10.0,SSW,11.5,19.6,N/A,,Scattered Clouds,200,2013-04-09 16:30:00
11:55 AM,75.2,60.8,61,30.05,10.0,South,12.7,18.4,0.00,,Scattered Clouds,190,2013-04-09 16:55:00
12:55 PM,75.0,61.5,63,30.04,10.0,South,15.0,23.0,N/A,,Mostly Cloudy,190,2013-04-09 17:55:00
1:55 PM,75.0,62.1,64,30.01,10.0,South,13.8,-,N/A,,Mostly Cloudy,170,2013-04-09 18:55:00
2:55 PM,74.3,62.4,66,30.01,10.0,South,11.5,-,N/A,,Overcast,180,2013-04-09 19:55:00
3:55 PM,77.2,62.2,60,29.98,10.0,South,10.4,17.3,N/A,,Mostly Cloudy,190,2013-04-09 20:55:00
4:55 PM,76.8,62.1,60,29.97,10.0,South,11.5,-,N/A,,Mostly Cloudy,190,2013-04-09 21:55:00
5:55 PM,75.7,62.6,64,29.96,10.0,South,5.8,-,N/A,,Mostly Cloudy,180,2013-04-09 22:55:00
6:55 PM,74.7,63.1,67,29.97,10.0,SE,4.6,-,N/A,,Overcast,140,2013-04-09 23:55:00
7:55 PM,72.3,63.9,75,29.96,10.0,SE,4.6,-,N/A,,Scattered Clouds,140,2013-04-10 00:55:00
8:55 PM,71.6,64.2,77,29.97,10.0,SE,5.8,-,N/A,,Clear,140,2013-04-10 01:55:00
9:55 PM,70.3,64.2,81,29.97,10.0,SE,4.6,-,N/A,,Clear,140,2013-04-10 02:55:00
10:55 PM,70.5,63.3,78,29.97,10.0,SSE,6.9,-,N/A,,Partly Cloudy,160,2013-04-10 03:55:00
11:55 PM,70.2,62.8,77,29.95,10.0,SSE,8.1,-,N/A,,Clear,150,2013-04-10 04:55:00